Showing default

EUTE 36D, 59346

Orbit data source: Space-Track

EUTE 36D, 59346 is a payload satellite owned by EutelsatSA (FR) in GEO that was launched on Sat, 30 Mar 2024 UTC via an FALCON 9 launch vehicle from the Air Force Eastern Test Range (AFETR). Payloads include a variety of satellites, spacecraft, and rockets equipped with specific instruments for various scientific and technological missions. These include communications satellites like Starlink; space stations such as the ISS; scientific satellites like the Hubble; Earth observation satellites from companies like Planet Labs, Umbra, and HawkEye 360; GPS; miniature CubeSats for education and research; and military/defense satellites.

Not visible in the next 10 days
EUTE 36D details
Identifier
59346, 2024-059A
Orbit
GEO
Last TLE update1 day ago
Origin
Flag of FREutelsatSA (FR / EUTE)
ManufacturerADST/ADSUK
MissionOperational Commercial Communications
Bus & MotorEUROSTAR NEO, PPS-5000
Mass5,000 kg wet, ~5,000 kg dry
Launch date (UTC)
2024-03-30 (10 months ago)
Launch vehicle
FALCON 9
Launch site
Air Force Eastern Test Range (AFETR)
Object type
Payload
Rocket body
Debris
Shape & HBRBox + 2 Pan, 40 m
Radar Cross Section58.239 m², Large (>1 m²)

Expand to show TLE details & history

TLE from 1 day ago
0 EUTE 36D
1 59346U 24059A   25039.27030690  .00000149  00000-0  00000-0 0  9997
2 59346   0.0104  68.3095 0000421 226.1609 337.2807  1.00271464  3196
Epoch: 2025-02-08T06:29Z
Definitive object data (Epoch: 2025-02-08T06:29:14.516Z)
Latitude-0.00917°
Longitude35.85309°
Altitude35,784.534 km
Speed3.075 km/s
True Right ascension18h 07m 08s
True Declination0° 00' 33"
Sunlit
Object was in daylight at TLE epoch
Visualization TLE readout
Latitude-0.02118°
Longitude163.85317°
Altitude35,786.457 km
Speed3.075 km/s
Apparent Right ascension02h 54m 29s
Apparent Declination-5° 04' 06"
Sunlit
Object is in daylight
Visualization observer readout
Local Sidereal Time17:15:12
Azimuth51.613° ENE
Elevation-42.932°
Doppler factor1
Orbital elements
Apogee altitude35,789.531 km
Perigee altitude35,785.98 km
Semi-major axis42,165.892 km
Eccentricity0.0000421
Inclination0.0104°
RAAN68.3095°
Arg. of periapsis226.1609°
True anomaly337.27884°
Mean anomaly337.2807°
Eccentric anomaly337.27977°
Mean motion0.25067 °/min
BSTARUnknown
Orbital period1436.15 mins
Loading historical data...
59346 neighbors
Authenticating...
Loading maneuver chart data...
Loading historical data...
Loading historical data...
Loading historical data...
Loading historical data...
Loading historical data...
Loading historical data...
Loading historical data...
Other satellites on launch #59 in the year 2024 (2024-03-30 UTC)

EUTE 36D Visibility forecast

Observer location: undefined°, undefined

EUTE 36D is not visible in the next 10 days
Span
Click to sort rows by Start time (UTC) header in descending order
Start Az.
Max El. time (UTC)
Max El. Az.
Max El.
End time (UTC)
End Az.
|